Tracking 23726 objects as of 22-Sep-2021
HD Live streaming from Space Station
objects crossing your sky now

AMOS 2

Track AMOS 2 now!
AMOS 2 is classified as:


NORAD ID: 28132
Int'l Code: 2003-059A
Perigee: 36,022.4 km
Apogee: 36,060.9 km
Inclination: 4.3 °
Period: 1,448.8 minutes
Semi major axis: 42412 km
RCS: 36.2156 m2 (large)
Launch date: December 27, 2003
Source: Israel (ISRA)
Launch site: TYURATAM MISSILE AND SPACE COMPLEX (TTMTR)

Ku-band communications, Europe, Middle East, East Coast of USA.
aabbcc
Your satellite tracking list
Your tracking list is empty




NASA's NSSDC Master Catalog

Two Line Element Set (TLE):
1 28132U 03059A   21265.58086823  .00000039  00000-0  00000-0 0  9991
2 28132   4.2583  80.2446 0004528  47.3736 331.6646  0.99393927 64867
Source of the keplerian elements: AFSPC